Location: Bocianicha
(51.5066°N, 19.2563°E)
Time: 13:24:57
(UTC+00:00)

Cosmos 1570 Rocket - Pass Details

Date: 15 June 2025
Orbit: 759 x 784 km, 74.1° (Epoch: 17 July)

Event Time Altitude Azimuth Distance (km) Brightness Sun altitude
Rises 00:40:51 0° 335° (NNW) 3,288 7.8 -10.9°
Reaches altitude 10° 00:43:15 10° 335° (NNW) 2,355 7.1 -10.7°
Maximum altitude 00:48:37 90° 39° (NE) 792 4.1 -10.3°
Drops below altitude 10° 00:53:57 10° 157° (SSE) 2,332 6.2 -9.9°
Sets 00:56:19 0° 157° (SSE) 3,253 6.9 -9.7°
